| time (UTC) | temp F | wind direction | speed MPH | gust MPH | rain 1hr in | rain 24hr in | rain mn in | humidity % | barometer mb |
| 20260901160133 | 70 | 239 | 4.0 | 9.0 | 0.00 | 0.49 | 0.13 | 92 | 958.9 |
| 20260901154531 | 69 | 200 | 4.0 | 8.0 | 0.00 | 0.50 | 0.13 | 92 | 959.0 |
| 20260901153034 | 69 | 236 | 2.0 | 5.0 | 0.00 | 0.50 | 0.13 | 92 | 959.2 |
| 20260901151529 | 69 | 221 | 3.0 | 5.0 | 0.00 | 0.50 | 0.13 | 92 | 959.2 |
| 20260901150031 | 69 | 228 | 2.0 | 6.0 | 0.00 | 0.50 | 0.13 | 92 | 959.2 |
| 20260901144525 | 68 | 258 | 3.0 | 7.0 | 0.00 | 0.50 | 0.13 | 92 | 959.0 |
| 20260901143029 | 68 | 227 | 4.0 | 11.0 | 0.00 | 0.50 | 0.13 | 92 | 958.9 |
| 20260901141524 | 68 | 249 | 4.0 | 9.0 | 0.00 | 0.50 | 0.13 | 92 | 958.8 |
| 20260901140024 | 68 | 259 | 6.0 | 11.0 | 0.00 | 0.50 | 0.13 | 92 | 959.0 |
| 20260901134536 | 68 | 236 | 3.0 | 9.0 | 0.00 | 0.50 | 0.13 | 92 | 959.0 |
| 20260901133019 | 67 | 232 | 4.0 | 8.0 | 0.01 | 0.50 | 0.13 | 92 | 959.1 |
| 20260901131520 | 67 | 229 | 3.0 | 8.0 | 0.01 | 0.50 | 0.13 | 92 | 959.3 |
| 20260901130017 | 67 | 207 | 1.0 | 3.0 | 0.01 | 0.50 | 0.13 | 92 | 959.3 |
| 20260901124519 | 67 | 194 | 1.0 | 6.0 | 0.01 | 0.50 | 0.13 | 92 | 959.2 |
| 20260901123013 | 67 | 217 | 4.0 | 8.0 | 0.02 | 0.49 | 0.12 | 92 | 959.7 |
| 20260901121514 | 66 | 237 | 3.0 | 8.0 | 0.07 | 0.49 | 0.12 | 92 | 960.0 |
| 20260901120011 | 66 | 223 | 2.0 | 5.0 | 0.07 | 0.49 | 0.12 | 92 | 959.5 |
| 20260901114506 | 66 | 219 | 0.0 | 2.0 | 0.08 | 0.49 | 0.12 | 92 | 959.6 |
| 20260901113002 | 66 | 219 | 1.0 | 2.0 | 0.05 | 0.46 | 0.09 | 92 | 959.8 |
| 20260901111601 | 65 | 219 | 0.0 | 1.0 | 0.02 | 0.42 | 0.05 | 92 | 959.6 |
| 20260901110106 | 65 | 219 | 0.0 | 2.0 | 0.02 | 0.42 | 0.05 | 92 | 959.2 |
| 20260901104601 | 65 | 219 | 0.0 | 3.0 | 0.01 | 0.41 | 0.04 | 92 | 959.3 |
| 20260901103056 | 65 | 217 | 2.0 | 5.0 | 0.01 | 0.41 | 0.04 | 92 | 959.1 |
| 20260901101612 | 65 | 200 | 1.0 | 4.0 | 0.00 | 0.40 | 0.03 | 92 | 959.1 |
| 20260901100107 | 65 | 201 | 1.0 | 5.0 | 0.00 | 0.40 | 0.03 | 92 | 959.0 |
| 20260901094553 | 65 | 201 | 1.0 | 4.0 | 0.00 | 0.40 | 0.03 | 92 | 959.2 |
| 20260901093052 | 65 | 200 | 2.0 | 4.0 | 0.00 | 0.40 | 0.03 | 92 | 959.4 |
| 20260901091552 | 65 | 201 | 1.0 | 5.0 | 0.01 | 0.40 | 0.03 | 92 | 959.3 |
| 20260901090055 | 65 | 232 | 1.0 | 3.0 | 0.03 | 0.40 | 0.03 | 92 | 959.4 |
| 20260901084548 | 66 | 234 | 1.0 | 3.0 | 0.03 | 0.40 | 0.03 | 92 | 959.7 |
| 20260901083044 | 66 | 250 | 1.0 | 5.0 | 0.03 | 0.40 | 0.03 | 92 | 959.9 |
| 20260901081547 | 65 | 248 | 3.0 | 5.0 | 0.02 | 0.39 | 0.02 | 92 | 960.0 |
| 20260901080044 | 65 | 257 | 3.0 | 6.0 | 0.00 | 0.37 | 0.00 | 92 | 960.0 |
| 20260901074540 | 65 | 247 | 1.0 | 3.0 | 0.00 | 0.37 | 0.00 | 92 | 960.0 |
| 20260901073042 | 65 | 247 | 1.0 | 3.0 | 0.00 | 0.37 | 0.00 | 92 | 959.9 |
| 20260901071539 | 65 | 247 | 1.0 | 2.0 | 0.00 | 0.37 | 0.00 | 92 | 960.1 |
| 20260901070053 | 65 | 247 | 1.0 | 3.0 | 0.00 | 0.37 | 0.00 | 92 | 960.1 |
| 20260901064537 | 65 | 247 | 1.0 | 3.0 | 0.00 | 0.37 | 0.00 | 92 | 960.2 |
| 20260901063013 | 64 | 247 | 1.0 | 2.0 | 0.00 | 0.37 | 0.00 | 92 | 960.3 |
| 20260901061507 | 65 | 247 | 1.0 | 2.0 | 0.00 | 0.37 | 0.00 | 92 | 960.3 |
| 20260901060007 | 65 | 247 | 1.0 | 3.0 | 0.00 | 0.37 | 0.00 | 92 | 960.4 |
| 20260901054504 | 65 | 247 | 0.0 | 3.0 | 0.00 | 0.37 | 0.00 | 92 | 960.7 |
| 20260901053003 | 65 | 247 | 1.0 | 4.0 | 0.00 | 0.37 | 0.00 | 92 | 960.8 |
| 20260901051700 | 65 | 247 | 1.0 | 3.0 | 0.00 | 0.37 | 0.00 | 91 | 960.8 |
| 20260901050059 | 65 | 247 | 1.0 | 3.0 | 0.00 | 0.37 | 0.00 | 92 | 961.0 |
| 20260901044620 | 65 | 247 | 2.0 | 4.0 | 0.00 | 0.37 | 0.00 | 92 | 960.9 |
| 20260901043057 | 65 | 247 | 3.0 | 5.0 | 0.00 | 0.37 | 0.00 | 92 | 961.1 |
| 20260901041554 | 65 | 242 | 2.0 | 5.0 | 0.00 | 0.37 | 0.00 | 91 | 961.1 |
| 20260901040053 | 65 | 252 | 2.0 | 4.0 | 0.00 | 0.37 | 0.00 | 91 | 960.9 |
| 20260901034557 | 65 | 248 | 3.0 | 5.0 | 0.00 | 0.37 | 0.37 | 91 | 961.0 |
| 20260901033049 | 65 | 245 | 3.0 | 5.0 | 0.00 | 0.37 | 0.37 | 91 | 961.1 |
| 20260901031553 | 65 | 243 | 2.0 | 4.0 | 0.00 | 0.37 | 0.37 | 91 | 961.1 |
| 20260901030049 | 65 | 234 | 2.0 | 5.0 | 0.01 | 0.37 | 0.37 | 91 | 961.1 |
| 20260901024548 | 65 | 223 | 2.0 | 5.0 | 0.01 | 0.37 | 0.37 | 91 | 961.0 |
| 20260901023047 | 65 | 225 | 3.0 | 6.0 | 0.02 | 0.37 | 0.37 | 91 | 961.2 |
| 20260901021607 | 65 | 219 | 2.0 | 4.0 | 0.05 | 0.37 | 0.37 | 91 | 961.4 |
| 20260901020104 | 65 | 236 | 2.0 | 5.0 | 0.04 | 0.36 | 0.36 | 91 | 961.5 |
| 20260901014549 | 65 | 229 | 3.0 | 5.0 | 0.05 | 0.36 | 0.36 | 91 | 961.6 |
| 20260901013046 | 65 | 234 | 2.0 | 5.0 | 0.04 | 0.35 | 0.35 | 91 | 961.7 |
| 20260901011545 | 65 | 212 | 2.0 | 4.0 | 0.01 | 0.32 | 0.32 | 91 | 961.6 |
| 20260901010045 | 65 | 214 | 1.0 | 5.0 | 0.02 | 0.32 | 0.32 | 91 | 961.4 |
| 20260901004545 | 65 | 229 | 1.0 | 6.0 | 0.01 | 0.31 | 0.31 | 91 | 961.4 |
| 20260901003050 | 65 | 227 | 3.0 | 5.0 | 0.01 | 0.31 | 0.31 | 91 | 961.2 |
| 20260901001557 | 65 | 199 | 2.0 | 5.0 | 0.01 | 0.31 | 0.31 | 91 | 961.1 |
| 20260901000048 | 65 | 209 | 2.0 | 5.0 | 0.00 | 0.30 | 0.30 | 91 | 961.2 |
| 20260831234556 | 65 | 196 | 2.0 | 5.0 | 0.00 | 0.30 | 0.30 | 91 | 961.2 |
| 20260831233046 | 65 | 207 | 1.0 | 5.0 | 0.00 | 0.30 | 0.30 | 91 | 961.2 |
| 20260831231541 | 65 | 214 | 2.0 | 5.0 | 0.01 | 0.30 | 0.30 | 91 | 961.4 |
| 20260831230037 | 65 | 204 | 2.0 | 4.0 | 0.02 | 0.30 | 0.30 | 91 | 961.5 |
| 20260831224534 | 65 | 207 | 1.0 | 4.0 | 0.04 | 0.30 | 0.30 | 91 | 961.7 |
| 20260831223034 | 65 | 216 | 1.0 | 4.0 | 0.04 | 0.30 | 0.30 | 91 | 961.9 |
| 20260831221532 | 65 | 216 | 0.0 | 4.0 | 0.04 | 0.28 | 0.28 | 91 | 962.1 |
| 20260831220031 | 65 | 238 | 2.0 | 7.0 | 0.05 | 0.28 | 0.28 | 90 | 962.2 |
| 20260831214530 | 65 | 242 | 3.0 | 5.0 | 0.04 | 0.26 | 0.26 | 90 | 962.3 |
| 20260831213035 | 65 | 209 | 2.0 | 5.0 | 0.04 | 0.26 | 0.26 | 90 | 962.2 |
| 20260831211530 | 65 | 206 | 0.0 | 4.0 | 0.03 | 0.25 | 0.25 | 90 | 962.5 |
| 20260831210030 | 65 | 198 | 2.0 | 5.0 | 0.01 | 0.23 | 0.23 | 90 | 962.2 |
| 20260831204526 | 65 | 197 | 2.0 | 4.0 | 0.01 | 0.22 | 0.22 | 90 | 962.3 |
| 20260831203025 | 65 | 177 | 1.0 | 4.0 | 0.02 | 0.22 | 0.22 | 90 | 962.4 |
| 20260831201535 | 64 | 204 | 1.0 | 6.0 | 0.02 | 0.22 | 0.22 | 90 | 962.4 |
| 20260831200027 | 64 | 194 | 2.0 | 5.0 | 0.02 | 0.22 | 0.22 | 90 | 962.4 |
| 20260831194535 | 64 | 186 | 2.0 | 5.0 | 0.01 | 0.21 | 0.21 | 90 | 962.6 |
| 20260831193121 | 64 | 186 | 2.0 | 5.0 | 0.00 | 0.20 | 0.20 | 90 | 962.6 |
| 20260831191520 | 64 | 171 | 4.0 | 7.0 | 0.00 | 0.20 | 0.20 | 90 | 962.6 |
| 20260831190018 | 64 | 166 | 2.0 | 8.0 | 0.00 | 0.20 | 0.20 | 90 | 962.9 |
| 20260831184523 | 64 | 177 | 2.0 | 5.0 | 0.01 | 0.20 | 0.20 | 90 | 962.9 |
| 20260831183015 | 64 | 138 | 0.0 | 6.0 | 0.02 | 0.20 | 0.20 | 90 | 963.2 |
| 20260831181519 | 64 | 188 | 2.0 | 6.0 | 0.04 | 0.20 | 0.20 | 89 | 963.5 |
| 20260831180013 | 64 | 198 | 2.0 | 6.0 | 0.06 | 0.20 | 0.20 | 89 | 963.5 |
| 20260831174511 | 64 | 195 | 2.0 | 7.0 | 0.08 | 0.19 | 0.19 | 89 | 963.7 |
| 20260831173010 | 64 | 175 | 3.0 | 7.0 | 0.08 | 0.18 | 0.18 | 89 | 963.8 |
| 20260831171510 | 65 | 171 | 0.0 | 3.0 | 0.11 | 0.16 | 0.16 | 88 | 963.9 |
| 20260831170011 | 65 | 190 | 0.0 | 4.0 | 0.13 | 0.14 | 0.14 | 88 | 964.1 |
| 20260831164508 | 65 | 190 | 0.0 | 1.0 | 0.11 | 0.11 | 0.11 | 88 | 964.2 |
| 20260831163011 | 65 | 190 | 0.0 | 0.0 | 0.10 | 0.10 | 0.10 | 87 | 964.2 |
| 20260831161512 | 65 | 190 | 0.0 | 2.0 | 0.05 | 0.05 | 0.05 | 86 | 964.3 |